Regional Weather Roundup
Issued by NWS

Home | Current Version | Previous Version | Graphics & Text | Print | Product List | Glossary On
Versions: 1 2 3 4 5 6 7 8 9 10 11 12 13 14 15 16 17 18 19 20 21 22 23 24 25 26 27 28 29 30 31 32 33 34 35 36 37 38 39 40 41 42 43 44 45 46 47 48 49 50
129
ASUS43 KOAX 280602
RWRNE

WEATHER ROUNDUP FOR NEBRASKA
NATIONAL WEATHER SERVICE OMAHA NE
100 AM CDT WED SEP 28 2016

NOTES: SATELLITE DATA IS BEING USED TO AUGMENT CLOUD COVER ABOVE
       12000 FEET.
       "FAIR" INDICATES FEW OR NO CLOUDS BELOW 12,000 FEET WITH NO
       SIGNIFICANT WEATHER AND/OR OBSTRUCTIONS TO VISIBILITY.

  * THESE STATIONS DO NOT REPORT WEATHER SUCH AS RAIN...SNOW OR FOG.

NEZ001>004-019>022-054>056-280700-
NEBRASKA PANHANDLE

CITY           SKY/WX    TMP DP  RH WIND       PRES   REMARKS
SCOTTSBLUFF    CLEAR     53  42  66 N3        30.15R
6HR MIN TEMP:  50; 6HR MAX TEMP:  80;

ALLIANCE       CLEAR     43  39  86 NW3       30.13R
6HR MIN TEMP:  42; 6HR MAX TEMP:  79;

CHADRON        CLEAR     51  43  74 SW6       30.11R
6HR MIN TEMP:  50; 6HR MAX TEMP:  81;

KIMBALL        CLEAR     49  38  66 W6        30.19S
SIDNEY         CLEAR     50  38  63 NW10      30.15R
6HR MIN TEMP:  48; 6HR MAX TEMP:  79;

$$

NEZ057>060-069>072-079>082-280700-
SOUTHWEST NEBRASKA

CITY           SKY/WX    TMP DP  RH WIND       PRES   REMARKS
NORTH PLATTE   CLEAR     50  44  80 CALM      30.06R
6HR MIN TEMP:  49; 6HR MAX TEMP:  77;

IMPERIAL       CLEAR     55  37  50 W5        30.08R
6HR MIN TEMP:  53; 6HR MAX TEMP:  82;

LEXINGTON      CLEAR     49  44  81 W7        30.02S
MCCOOK         CLEAR     52  44  74 W5        30.03R
6HR MIN TEMP:  52; 6HR MAX TEMP:  81;

OGALLALA       CLEAR     50  42  75 W5        30.08S
$$

NEZ005>010-023>029-035>040-094-280700-
NORTH CENTRAL NEBRASKA

CITY           SKY/WX    TMP DP  RH WIND       PRES   REMARKS
VALENTINE      CLEAR     48  40  73 NW5       30.05R
6HR MIN TEMP:  47; 6HR MAX TEMP:  78;

AINSWORTH      CLEAR     49  44  81 W6        30.04R
BROKEN BOW     CLEAR     49  43  80 W5        30.02R
6HR MIN TEMP:  48; 6HR MAX TEMP:  80;

O`NEILL        CLEAR     52  44  74 N5        30.00S
ORD            CLEAR     49  43  80 CALM      29.99R
6HR MIN TEMP:  48; 6HR MAX TEMP:  77; 6HR PCP: TRACE;

THEDFORD       CLEAR     50  43  75 W3        30.07R
$$

NEZ041-046>049-061>064-073>077-083>087-280700-
SOUTH CENTRAL NEBRASKA

CITY           SKY/WX    TMP DP  RH WIND       PRES   REMARKS
GRAND ISLAND   CLEAR     52  46  80 NW3       29.98R
6HR MIN TEMP:  51; 6HR MAX TEMP:  80;

AURORA         CLEAR     54  49  83 N7        29.96S
HASTINGS       CLEAR     57  46  66 CALM      29.98R
6HR MIN TEMP:  56; 6HR MAX TEMP:  79;

HEBRON         CLEAR     54  50  87 W3        29.93R
HOLDREGE       CLEAR     55  44  67 NW5       30.00R
KEARNEY *      CLEAR     55  43  62 NW5       29.99R
YORK           CLEAR     52  48  87 NW5       29.95S
$$

NEZ011>018-030>034-042>045-280700-
NORTHEAST NEBRASKA

CITY           SKY/WX    TMP DP  RH WIND       PRES   REMARKS
NORFOLK        CLEAR     51  45  79 W7        29.96R HAZE
6HR MIN TEMP:  51; 6HR MAX TEMP:  71;

ALBION         CLEAR     49  45  87 NW6       29.98R
BLAIR          CLEAR     60  48  63 N9        29.91R
FREMONT        CLEAR     51  47  87 CALM      29.93R
TEKAMAH        CLEAR     50  47  89 N6        29.92R
6HR MIN TEMP:  50; 6HR MAX TEMP:  69;

WAYNE          CLEAR     44  42  91 CALM      29.96R
$$

NEZ050>053-065>068-078-088>093-280700-
SOUTHEAST NEBRASKA

CITY           SKY/WX    TMP DP  RH WIND       PRES   REMARKS
LINCOLN        CLEAR     56  51  84 CALM      29.93R
6HR MIN TEMP:  53; 6HR MAX TEMP:  78;

OMAHA EPPLEY   CLEAR     52  48  86 N6        29.91R
6HR MIN TEMP:  52; 6HR MAX TEMP:  72;

BEATRICE       CLEAR     53  50  88 W3        29.91R
FALLS CITY     CLEAR     56  52  86 W5        29.87R
6HR MIN TEMP:  54; 6HR MAX TEMP:  74;

NEBRASKA CITY  CLEAR     60  40  48 W5        29.89S
PLATTSMOUTH    CLEAR     59  44  57 NW7       29.90R
$$

NEZ044-045-051>053-067-280700-
OMAHA AREA

CITY           SKY/WX    TMP DP  RH WIND       PRES   REMARKS
OMAHA EPPLEY   CLEAR     52  48  86 N6        29.91R
6HR MIN TEMP:  52; 6HR MAX TEMP:  72;

BLAIR          CLEAR     60  48  63 N9        29.91R
FREMONT        CLEAR     51  47  87 CALM      29.93R
MILLARD        CLEAR     56  52  88 CALM      29.91R
OFFUTT AFB     CLEAR     54  52  93 NW5       29.89R
PLATTSMOUTH    CLEAR     59  44  57 NW7       29.90R
WAHOO          FAIR      58  47  67 NW7       29.92S
$$




USA.gov is the U.S. government's official web portal to all federal, state and local government web resources and services.